Location: Burzi?i
(45.0869°N, 16.0577°E)
Time: 11:52:27
(UTC+00:00)

Cosmos 2082 - Pass Details

Date: 29 October 2020
Orbit: 832 x 857 km, 71.0° (Epoch: 28 November)

Event Time Altitude Azimuth Distance (km) Brightness Sun altitude
Rises 16:28:17 0° 339° (NNW) 3,436 7.0 -7.8°
Reaches altitude 10° 16:31:00 10° 349° (N) 2,498 6.2 -8.2°
Maximum altitude 16:36:12 34° 54° (NE) 1,376 4.4 -9.1°
Drops below altitude 10° 16:41:22 10° 118° (ESE) 2,487 5.7 -10.0°
Enters shadow 16:43:42 - 127° (SE) 3,294 6.4 -10.4°
